Time,TemperatureF,DewpointF,PressureIn,WindDirection,WindDirectionDegrees,WindSpeedMPH,WindSpeedGustMPH,Humidity,HourlyPrecipIn,Conditions,Clouds,dailyrainin,SoftwareType,DateUTC
2013-04-21 00:03:00,34.0,21.0,-100.00,North,0,2.0,5.0,59,-99.99,,,-99.99,,2013-04-21 04:03:00,
2013-04-21 00:12:00,34.0,22.0,-100.00,North,5,3.0,4.0,59,-99.99,,,-99.99,,2013-04-21 04:12:00,
2013-04-21 00:23:00,34.0,22.0,-100.00,North,0,2.0,4.0,60,-99.99,,,-99.99,,2013-04-21 04:23:00,
2013-04-21 00:33:00,33.0,22.0,-100.00,North,5,1.0,4.0,61,-99.99,,,-99.99,,2013-04-21 04:33:00,
2013-04-21 00:42:00,33.0,22.0,-100.00,North,5,2.0,4.0,62,-99.99,,,-99.99,,2013-04-21 04:42:00,
2013-04-21 00:52:00,33.0,22.0,-100.00,North,0,2.0,4.0,62,-99.99,,,-99.99,,2013-04-21 04:52:00,
2013-04-21 01:02:00,33.0,22.0,-100.00,North,0,1.0,2.0,62,-99.99,,,-99.99,,2013-04-21 05:02:00,
2013-04-21 01:12:00,33.0,22.0,-100.00,NNW,345,1.0,2.0,62,-99.99,,,-99.99,,2013-04-21 05:12:00,
2013-04-21 01:22:00,33.0,22.0,-100.00,North,350,2.0,2.0,62,-99.99,,,-99.99,,2013-04-21 05:22:00,
2013-04-21 01:32:00,33.0,22.0,-100.00,NNW,340,1.0,2.0,63,-99.99,,,-99.99,,2013-04-21 05:32:00,
2013-04-21 01:42:00,32.0,22.0,-100.00,North,350,1.0,2.0,65,-99.99,,,-99.99,,2013-04-21 05:42:00,
2013-04-21 01:52:00,32.0,22.0,-100.00,NNW,340,1.0,2.0,66,-99.99,,,-99.99,,2013-04-21 05:52:00,
2013-04-21 02:01:00,31.0,22.0,-100.00,NNW,340,0.0,1.0,67,-99.99,,,-99.99,,2013-04-21 06:01:00,
2013-04-21 02:12:00,31.0,22.0,-100.00,NNW,340,0.0,1.0,67,-99.99,,,-99.99,,2013-04-21 06:12:00,
2013-04-21 02:22:00,31.0,23.0,-100.00,NNW,335,1.0,1.0,71,-99.99,,,-99.99,,2013-04-21 06:22:00,
2013-04-21 02:32:00,31.0,23.0,-100.00,West,280,0.0,1.0,73,-99.99,,,-99.99,,2013-04-21 06:32:00,
2013-04-21 02:42:00,30.0,23.0,-100.00,West,280,0.0,0.0,75,-99.99,,,-99.99,,2013-04-21 06:42:00,
2013-04-21 02:52:00,31.0,24.0,-100.00,West,280,1.0,1.0,76,-99.99,,,-99.99,,2013-04-21 06:52:00,
2013-04-21 03:02:00,31.0,25.0,-100.00,NW,325,1.0,1.0,77,-99.99,,,-99.99,,2013-04-21 07:02:00,
2013-04-21 03:12:00,30.0,25.0,-100.00,NNW,345,1.0,1.0,79,-99.99,,,-99.99,,2013-04-21 07:12:00,
2013-04-21 03:21:00,30.0,25.0,-100.00,North,5,0.0,1.0,80,-99.99,,,-99.99,,2013-04-21 07:21:00,
2013-04-21 03:32:00,30.0,25.0,-100.00,NNE,20,1.0,1.0,81,-99.99,,,-99.99,,2013-04-21 07:32:00,
2013-04-21 03:42:00,30.0,25.0,-100.00,NNE,25,0.0,1.0,81,-99.99,,,-99.99,,2013-04-21 07:42:00,
2013-04-21 03:52:00,30.0,25.0,-100.00,NE,45,1.0,1.0,82,-99.99,,,-99.99,,2013-04-21 07:52:00,
2013-04-21 04:01:00,30.0,25.0,-100.00,North,5,1.0,2.0,82,-99.99,,,-99.99,,2013-04-21 08:01:00,
2013-04-21 04:12:00,30.0,25.0,-100.00,North,5,1.0,2.0,82,-99.99,,,-99.99,,2013-04-21 08:12:00,
2013-04-21 04:21:00,30.0,26.0,-100.00,North,10,1.0,2.0,83,-99.99,,,-99.99,,2013-04-21 08:21:00,
2013-04-21 04:32:00,30.0,26.0,-100.00,North,10,2.0,3.0,83,-99.99,,,-99.99,,2013-04-21 08:32:00,
2013-04-21 04:42:00,30.0,26.0,-100.00,ENE,70,1.0,2.0,83,-99.99,,,-99.99,,2013-04-21 08:42:00,
2013-04-21 04:52:00,30.0,26.0,-100.00,NNE,15,1.0,2.0,84,-99.99,,,-99.99,,2013-04-21 08:52:00,
2013-04-21 05:02:00,30.0,26.0,-100.00,NNE,30,1.0,2.0,84,-99.99,,,-99.99,,2013-04-21 09:02:00,
2013-04-21 05:12:00,30.0,26.0,-100.00,NE,40,1.0,2.0,84,-99.99,,,-99.99,,2013-04-21 09:12:00,
2013-04-21 05:21:00,29.0,25.0,-100.00,NE,35,1.0,2.0,84,-99.99,,,-99.99,,2013-04-21 09:21:00,
2013-04-21 05:32:00,29.0,26.0,-100.00,NE,45,0.0,2.0,85,-99.99,,,-99.99,,2013-04-21 09:32:00,
2013-04-21 05:43:00,29.0,26.0,-100.00,NE,55,1.0,1.0,85,-99.99,,,-99.99,,2013-04-21 09:43:00,
2013-04-21 05:52:00,29.0,26.0,-100.00,NNE,30,0.0,2.0,85,-99.99,,,-99.99,,2013-04-21 09:52:00,
2013-04-21 06:03:00,29.0,26.0,-100.00,ENE,60,1.0,1.0,85,-99.99,,,-99.99,,2013-04-21 10:03:00,
2013-04-21 06:12:00,29.0,26.0,-100.00,NE,35,1.0,2.0,85,-99.99,,,-99.99,,2013-04-21 10:12:00,
2013-04-21 06:22:00,29.0,26.0,-100.00,NNE,30,1.0,2.0,85,-99.99,,,-99.99,,2013-04-21 10:22:00,
2013-04-21 06:32:00,30.0,26.0,-100.00,NE,50,2.0,3.0,85,-99.99,,,-99.99,,2013-04-21 10:32:00,
2013-04-21 06:42:00,29.0,26.0,-100.00,NE,50,1.0,2.0,85,-99.99,,,-99.99,,2013-04-21 10:42:00,
2013-04-21 06:52:00,30.0,26.0,-100.00,NE,45,1.0,3.0,85,-99.99,,,-99.99,,2013-04-21 10:52:00,
2013-04-21 07:03:00,30.0,26.0,-100.00,NE,45,1.0,3.0,85,-99.99,,,-99.99,,2013-04-21 11:03:00,
2013-04-21 07:12:00,30.0,26.0,-100.00,NNE,25,0.0,2.0,85,-99.99,,,-99.99,,2013-04-21 11:12:00,
2013-04-21 07:22:00,30.0,26.0,-100.00,NE,45,0.0,0.0,85,-99.99,,,-99.99,,2013-04-21 11:22:00,
2013-04-21 07:34:00,30.0,26.0,-100.00,North,5,1.0,2.0,86,-99.99,,,-99.99,,2013-04-21 11:34:00,
2013-04-21 07:42:00,30.0,26.0,-100.00,North,5,1.0,2.0,86,-99.99,,,-99.99,,2013-04-21 11:42:00,
2013-04-21 07:52:00,30.0,26.0,-100.00,North,10,1.0,2.0,86,-99.99,,,-99.99,,2013-04-21 11:52:00,
2013-04-21 08:03:00,30.0,27.0,-100.00,NNE,20,1.0,2.0,86,-99.99,,,-99.99,,2013-04-21 12:03:00,
2013-04-21 08:12:00,31.0,27.0,-100.00,SSE,160,0.0,2.0,86,-99.99,,,-99.99,,2013-04-21 12:12:00,
2013-04-21 08:22:00,31.0,28.0,-100.00,ENE,75,0.0,1.0,86,-99.99,,,-99.99,,2013-04-21 12:22:00,
2013-04-21 08:32:00,32.0,29.0,-100.00,ESE,120,0.0,1.0,86,-99.99,,,-99.99,,2013-04-21 12:32:00,
2013-04-21 08:42:00,33.0,30.0,-100.00,ESE,115,0.0,1.0,86,-99.99,,,-99.99,,2013-04-21 12:42:00,
2013-04-21 08:52:00,34.0,31.0,-100.00,East,95,1.0,1.0,86,-99.99,,,-99.99,,2013-04-21 12:52:00,
2013-04-21 09:01:00,36.0,33.0,-100.00,ESE,105,1.0,2.0,86,-99.99,,,-99.99,,2013-04-21 13:01:00,
2013-04-21 09:12:00,38.0,34.0,-100.00,SE,125,6.0,11.0,85,-99.99,,,-99.99,,2013-04-21 13:12:00,
2013-04-21 09:21:00,38.0,33.0,-100.00,ESE,110,7.0,11.0,80,-99.99,,,-99.99,,2013-04-21 13:21:00,
2013-04-21 09:32:00,39.0,32.0,-100.00,ESE,110,8.0,11.0,75,-99.99,,,-99.99,,2013-04-21 13:32:00,
2013-04-21 09:42:00,39.0,31.0,-100.00,ESE,105,7.0,12.0,71,-99.99,,,-99.99,,2013-04-21 13:42:00,
2013-04-21 09:52:00,40.0,30.0,-100.00,East,90,7.0,12.0,68,-99.99,,,-99.99,,2013-04-21 13:52:00,
2013-04-21 10:02:00,40.0,30.0,-100.00,East,95,7.0,11.0,67,-99.99,,,-99.99,,2013-04-21 14:02:00,
2013-04-21 10:11:00,40.0,30.0,-100.00,ESE,120,7.0,9.0,66,-99.99,,,-99.99,,2013-04-21 14:11:00,
2013-04-21 10:21:00,40.0,30.0,-100.00,ESE,110,6.0,9.0,65,-99.99,,,-99.99,,2013-04-21 14:21:00,
2013-04-21 10:32:00,41.0,29.0,-100.00,SE,130,4.0,12.0,63,-99.99,,,-99.99,,2013-04-21 14:32:00,
2013-04-21 10:42:00,42.0,30.0,-100.00,ESE,105,6.0,10.0,62,-99.99,,,-99.99,,2013-04-21 14:42:00,
2013-04-21 10:52:00,41.0,29.0,-100.00,East,90,7.0,14.0,61,-99.99,,,-99.99,,2013-04-21 14:52:00,
2013-04-21 11:02:00,42.0,30.0,-100.00,ESE,105,4.0,15.0,61,-99.99,,,-99.99,,2013-04-21 15:02:00,
2013-04-21 11:11:00,42.0,29.0,-100.00,SE,130,9.0,13.0,59,-99.99,,,-99.99,,2013-04-21 15:11:00,
2013-04-21 11:22:00,43.0,30.0,-100.00,ESE,120,7.0,12.0,60,-99.99,,,-99.99,,2013-04-21 15:22:00,
2013-04-21 11:33:00,43.0,30.0,-100.00,ENE,70,11.0,14.0,59,-99.99,,,-99.99,,2013-04-21 15:33:00,
2013-04-21 11:43:00,43.0,30.0,-100.00,SE,125,9.0,15.0,59,-99.99,,,-99.99,,2013-04-21 15:43:00,
2013-04-21 11:53:00,44.0,31.0,-100.00,ENE,75,4.0,11.0,59,-99.99,,,-99.99,,2013-04-21 15:53:00,
2013-04-21 12:03:00,44.0,31.0,-100.00,ESE,110,9.0,16.0,58,-99.99,,,-99.99,,2013-04-21 16:03:00,
2013-04-21 12:12:00,44.0,30.0,-100.00,ENE,70,7.0,12.0,59,-99.99,,,-99.99,,2013-04-21 16:12:00,
2013-04-21 12:23:00,44.0,31.0,-100.00,ENE,65,10.0,17.0,59,-99.99,,,-99.99,,2013-04-21 16:23:00,
2013-04-21 12:33:00,45.0,31.0,-100.00,East,100,7.0,14.0,58,-99.99,,,-99.99,,2013-04-21 16:33:00,
2013-04-21 12:42:00,45.0,31.0,-100.00,ENE,65,9.0,19.0,59,-99.99,,,-99.99,,2013-04-21 16:42:00,
2013-04-21 12:52:00,45.0,32.0,-100.00,ENE,75,10.0,16.0,59,-99.99,,,-99.99,,2013-04-21 16:52:00,
2013-04-21 13:02:00,45.0,31.0,-100.00,ENE,75,10.0,16.0,58,-99.99,,,-99.99,,2013-04-21 17:02:00,
2013-04-21 13:12:00,44.0,31.0,-100.00,ENE,65,11.0,19.0,60,-99.99,,,-99.99,,2013-04-21 17:12:00,
2013-04-21 13:23:00,45.0,32.0,-100.00,East,100,10.0,17.0,61,-99.99,,,-99.99,,2013-04-21 17:23:00,
2013-04-21 13:32:00,45.0,32.0,-100.00,NE,55,9.0,18.0,61,-99.99,,,-99.99,,2013-04-21 17:32:00,
2013-04-21 13:42:00,45.0,33.0,-100.00,ESE,105,11.0,17.0,61,-99.99,,,-99.99,,2013-04-21 17:42:00,
2013-04-21 13:52:00,46.0,33.0,-100.00,ENE,60,8.0,16.0,61,-99.99,,,-99.99,,2013-04-21 17:52:00,
2013-04-21 14:02:00,45.0,33.0,-100.00,East,80,12.0,18.0,62,-99.99,,,-99.99,,2013-04-21 18:02:00,
2013-04-21 14:11:00,45.0,33.0,-100.00,ENE,60,10.0,17.0,62,-99.99,,,-99.99,,2013-04-21 18:11:00,
2013-04-21 14:22:00,45.0,33.0,-100.00,ENE,70,9.0,16.0,62,-99.99,,,-99.99,,2013-04-21 18:22:00,
2013-04-21 14:32:00,46.0,34.0,-100.00,East,95,12.0,17.0,62,-99.99,,,-99.99,,2013-04-21 18:32:00,
2013-04-21 14:42:00,46.0,33.0,-100.00,East,80,10.0,16.0,61,-99.99,,,-99.99,,2013-04-21 18:42:00,
2013-04-21 14:52:00,46.0,34.0,-100.00,ENE,70,9.0,15.0,61,-99.99,,,-99.99,,2013-04-21 18:52:00,
2013-04-21 15:02:00,46.0,33.0,-100.00,ENE,65,9.0,18.0,60,-99.99,,,-99.99,,2013-04-21 19:02:00,
2013-04-21 15:12:00,46.0,33.0,-100.00,ENE,70,9.0,18.0,59,-99.99,,,-99.99,,2013-04-21 19:12:00,
2013-04-21 15:22:00,46.0,33.0,-100.00,ENE,60,10.0,19.0,60,-99.99,,,-99.99,,2013-04-21 19:22:00,
2013-04-21 15:32:00,46.0,33.0,-100.00,East,100,9.0,16.0,60,-99.99,,,-99.99,,2013-04-21 19:32:00,
2013-04-21 15:42:00,45.0,32.0,-100.00,ENE,70,11.0,18.0,59,-99.99,,,-99.99,,2013-04-21 19:42:00,
2013-04-21 15:52:00,44.0,32.0,-100.00,ENE,65,12.0,17.0,61,-99.99,,,-99.99,,2013-04-21 19:52:00,
2013-04-21 16:02:00,45.0,32.0,-100.00,ENE,65,10.0,16.0,60,-99.99,,,-99.99,,2013-04-21 20:02:00,
2013-04-21 16:11:00,46.0,33.0,-100.00,East,85,8.0,16.0,59,-99.99,,,-99.99,,2013-04-21 20:11:00,
2013-04-21 16:22:00,44.0,32.0,-100.00,ENE,65,12.0,17.0,61,-99.99,,,-99.99,,2013-04-21 20:22:00,
2013-04-21 16:32:00,45.0,32.0,-100.00,ENE,60,9.0,17.0,62,-99.99,,,-99.99,,2013-04-21 20:32:00,
2013-04-21 16:42:00,45.0,33.0,-100.00,ENE,70,12.0,18.0,63,-99.99,,,-99.99,,2013-04-21 20:42:00,
2013-04-21 16:52:00,45.0,33.0,-100.00,ENE,70,9.0,18.0,62,-99.99,,,-99.99,,2013-04-21 20:52:00,
2013-04-21 17:02:00,45.0,33.0,-100.00,ENE,65,12.0,17.0,62,-99.99,,,-99.99,,2013-04-21 21:02:00,
2013-04-21 17:12:00,45.0,33.0,-100.00,NE,55,9.0,16.0,62,-99.99,,,-99.99,,2013-04-21 21:12:00,
2013-04-21 17:22:00,45.0,33.0,-100.00,ENE,60,9.0,17.0,61,-99.99,,,-99.99,,2013-04-21 21:22:00,
2013-04-21 17:33:00,45.0,32.0,-100.00,East,80,12.0,16.0,60,-99.99,,,-99.99,,2013-04-21 21:33:00,
2013-04-21 17:43:00,45.0,33.0,-100.00,East,80,6.0,16.0,61,-99.99,,,-99.99,,2013-04-21 21:43:00,
2013-04-21 17:53:00,45.0,32.0,-100.00,East,100,10.0,16.0,60,-99.99,,,-99.99,,2013-04-21 21:53:00,
2013-04-21 18:03:00,45.0,32.0,-100.00,ESE,110,9.0,14.0,59,-99.99,,,-99.99,,2013-04-21 22:03:00,
2013-04-21 18:12:00,45.0,31.0,-100.00,ENE,75,11.0,16.0,58,-99.99,,,-99.99,,2013-04-21 22:12:00,
2013-04-21 18:22:00,45.0,31.0,-100.00,ENE,75,8.0,14.0,58,-99.99,,,-99.99,,2013-04-21 22:22:00,
2013-04-21 18:33:00,45.0,31.0,-100.00,ENE,60,7.0,14.0,57,-99.99,,,-99.99,,2013-04-21 22:33:00,
2013-04-21 18:43:00,44.0,30.0,-100.00,ENE,60,8.0,16.0,56,-99.99,,,-99.99,,2013-04-21 22:43:00,
2013-04-21 18:52:00,44.0,30.0,-100.00,East,95,7.0,15.0,57,-99.99,,,-99.99,,2013-04-21 22:52:00,
2013-04-21 19:02:00,45.0,30.0,-100.00,East,90,9.0,16.0,57,-99.99,,,-99.99,,2013-04-21 23:02:00,
2013-04-21 19:12:00,44.0,30.0,-100.00,East,80,9.0,13.0,56,-99.99,,,-99.99,,2013-04-21 23:12:00,
2013-04-21 19:22:00,44.0,30.0,-100.00,East,80,9.0,15.0,56,-99.99,,,-99.99,,2013-04-21 23:22:00,
2013-04-21 19:32:00,44.0,30.0,-100.00,East,80,9.0,14.0,57,-99.99,,,-99.99,,2013-04-21 23:32:00,
2013-04-21 19:42:00,44.0,30.0,-100.00,East,90,6.0,11.0,58,-99.99,,,-99.99,,2013-04-21 23:42:00,
2013-04-21 19:52:00,43.0,30.0,-100.00,ESE,110,10.0,14.0,59,-99.99,,,-99.99,,2013-04-21 23:52:00,
2013-04-21 20:01:00,42.0,30.0,-100.00,ESE,110,7.0,14.0,62,-99.99,,,-99.99,,2013-04-22 00:01:00,
2013-04-21 20:11:00,42.0,31.0,-100.00,East,90,9.0,12.0,63,-99.99,,,-99.99,,2013-04-22 00:11:00,
2013-04-21 20:22:00,42.0,31.0,-100.00,East,100,7.0,12.0,65,-99.99,,,-99.99,,2013-04-22 00:22:00,
2013-04-21 20:32:00,41.0,31.0,-100.00,East,95,7.0,14.0,67,-99.99,,,-99.99,,2013-04-22 00:32:00,
2013-04-21 20:42:00,41.0,31.0,-100.00,East,100,4.0,10.0,69,-99.99,,,-99.99,,2013-04-22 00:42:00,
2013-04-21 20:51:00,40.0,32.0,-100.00,ESE,105,9.0,12.0,71,-99.99,,,-99.99,,2013-04-22 00:51:00,
2013-04-21 21:01:00,40.0,32.0,-100.00,ESE,115,7.0,12.0,73,-99.99,,,-99.99,,2013-04-22 01:01:00,
2013-04-21 21:12:00,40.0,32.0,-100.00,East,90,6.0,12.0,74,-99.99,,,-99.99,,2013-04-22 01:12:00,
2013-04-21 21:21:00,40.0,32.0,-100.00,ESE,105,6.0,12.0,74,-99.99,,,-99.99,,2013-04-22 01:21:00,
2013-04-21 21:32:00,39.0,32.0,-100.00,East,90,5.0,8.0,75,-99.99,,,-99.99,,2013-04-22 01:32:00,
2013-04-21 21:42:00,39.0,32.0,-100.00,ESE,110,6.0,9.0,75,-99.99,,,-99.99,,2013-04-22 01:42:00,
2013-04-21 21:52:00,39.0,33.0,-100.00,East,95,5.0,10.0,77,-99.99,,,-99.99,,2013-04-22 01:52:00,
2013-04-21 22:02:00,39.0,33.0,-100.00,ENE,75,4.0,10.0,77,-99.99,,,-99.99,,2013-04-22 02:02:00,
2013-04-21 22:11:00,39.0,33.0,-100.00,East,95,4.0,9.0,78,-99.99,,,-99.99,,2013-04-22 02:11:00,
2013-04-21 22:21:00,39.0,33.0,-100.00,East,100,6.0,9.0,79,-99.99,,,-99.99,,2013-04-22 02:21:00,
2013-04-21 22:32:00,39.0,33.0,-100.00,East,90,6.0,10.0,79,-99.99,,,-99.99,,2013-04-22 02:32:00,
2013-04-21 22:42:00,39.0,33.0,-100.00,East,95,7.0,9.0,80,-99.99,,,-99.99,,2013-04-22 02:42:00,
2013-04-21 22:52:00,39.0,34.0,-100.00,East,90,4.0,10.0,80,-99.99,,,-99.99,,2013-04-22 02:52:00,
2013-04-21 23:02:00,39.0,34.0,-100.00,ESE,105,6.0,10.0,81,-99.99,,,-99.99,,2013-04-22 03:02:00,
2013-04-21 23:11:00,39.0,34.0,-100.00,ESE,105,4.0,9.0,81,-99.99,,,-99.99,,2013-04-22 03:11:00,
2013-04-21 23:22:00,39.0,34.0,-100.00,East,100,4.0,7.0,81,-99.99,,,-99.99,,2013-04-22 03:22:00,
2013-04-21 23:33:00,39.0,34.0,-100.00,East,100,5.0,9.0,82,-99.99,,,-99.99,,2013-04-22 03:33:00,
2013-04-21 23:43:00,39.0,34.0,-100.00,East,100,6.0,9.0,82,-99.99,,,-99.99,,2013-04-22 03:43:00,
2013-04-21 23:52:00,39.0,34.0,-100.00,East,90,7.0,10.0,83,-99.99,,,-99.99,,2013-04-22 03:52:00,